"Platform","Muskegon M20 ReCON Buoy"
"NDBC ID","45161"
"Latitude (deg)",43.18642
"Longitude (deg)",-86.35693
"Water Depth (m)",22
"Sensor Device","System Power Controller board voltage input"
"Sensor Type","Buoy battery voltage"
"Sensor Units","voltage"
"Measurement","A sample"
"Time means","Time at sample (UTC time zone)"

"Note:","This data was collected for research purposes."
"Note:","Minimal quality checking has been performed so data may contain known or unknown errors."
"Note:","Data provided by NOAA. Please credit NOAA."
"Note:","For more info see www.glerl.noaa.gov/res/recon"

"Time (UTC)","Battery"
"YYYY/MM/DD HH:MM","volts"
2021/05/03 16:38, 12.11
2021/05/03 16:58, 12.65
2021/05/03 17:18, 13.25
2021/05/03 17:38, 13.05
2021/05/03 17:58, 12.84
2021/05/03 18:18, 13.47
2021/05/03 18:38, 13.29
2021/05/03 18:58, 13.43
2021/05/03 19:18, 13.14
2021/05/03 19:38, 12.97
2021/05/03 19:58, 12.67
2021/05/03 20:18, 12.56
2021/05/03 20:38, 12.60
2021/05/03 20:58, 12.59
2021/05/03 21:18, 12.79
2021/05/03 21:38, 12.63
2021/05/03 21:58, 12.74
2021/05/03 22:18, 12.49
2021/05/03 22:38, 12.13
2021/05/03 22:58, 12.21
2021/05/03 23:18, 12.15
2021/05/03 23:38, 11.85
2021/05/03 23:58, 11.65
2021/05/04 00:18, 11.61
2021/05/04 00:38, 11.61
2021/05/04 00:58, 11.57
2021/05/04 01:18, 11.57
2021/05/04 01:38, 11.54
2021/05/04 01:58, 11.45
2021/05/04 02:18, 11.49
2021/05/04 02:38, 11.45
2021/05/04 02:58, 11.39
2021/05/04 03:18, 11.42
2021/05/04 03:38, 11.37
2021/05/04 03:58, 11.37
2021/05/04 04:18, 11.39
2021/05/04 04:38, 11.38
2021/05/04 04:58, 11.37
2021/05/04 05:18, 11.37
2021/05/04 05:38, 11.36
2021/05/04 05:58, 11.34
2021/05/04 06:18, 11.36
2021/05/04 06:38, 11.37
2021/05/04 06:58, 11.30
2021/05/04 07:18, 11.35
2021/05/04 07:38, 11.36
2021/05/04 07:58, 11.34
2021/05/04 08:18, 11.34
2021/05/04 08:38, 11.34
2021/05/04 08:58, 11.37
2021/05/04 09:18, 11.35
2021/05/04 09:38, 11.35
2021/05/04 09:58, 11.35
2021/05/04 10:18, 11.30
2021/05/04 10:38, 11.36
2021/05/04 10:58, 11.36
2021/05/04 11:18, 11.62
2021/05/04 11:38, 11.72
2021/05/04 11:58, 11.86
2021/05/04 12:18, 11.95
2021/05/04 12:38, 12.08
2021/05/04 12:58, 12.25
2021/05/04 13:18, 12.96
2021/05/04 13:38, 12.48
2021/05/04 13:58, 12.52
2021/05/04 14:18, 12.78
2021/05/04 14:38, 12.40
2021/05/04 14:58, 13.28
2021/05/04 15:18, 13.55
2021/05/04 15:38, 13.47
2021/05/04 15:58, 13.52
2021/05/04 16:18, 13.53
2021/05/04 16:38, 13.55
2021/05/04 16:58, 13.56
2021/05/04 17:18, 13.56
2021/05/04 17:38, 13.58
2021/05/04 17:58, 13.60
2021/05/04 18:18, 13.61
2021/05/04 18:38, 13.20
2021/05/04 18:58, 13.36
2021/05/04 19:18, 13.36
2021/05/04 19:38, 13.16
2021/05/04 19:58, 13.48
2021/05/04 20:18, 13.64
2021/05/04 20:38, 13.64
2021/05/04 20:58, 13.65
2021/05/04 21:18, 13.65
2021/05/04 21:38, 13.67
2021/05/04 21:58, 13.66
2021/05/04 22:18, 13.59
2021/05/04 22:38, 13.71
2021/05/04 22:58, 13.72
2021/05/04 23:18, 13.70
2021/05/04 23:38, 12.67
2021/05/04 23:58, 13.50
2021/05/05 00:18, 12.07
2021/05/05 00:38, 11.75
2021/05/05 00:58, 11.72
2021/05/05 01:18, 11.73
2021/05/05 01:38, 11.68
2021/05/05 01:58, 11.71
2021/05/05 02:18, 11.63
2021/05/05 02:38, 11.65
2021/05/05 02:58, 11.61
2021/05/05 03:18, 11.68
2021/05/05 03:38, 11.70
2021/05/05 03:58, 11.61
2021/05/05 04:18, 11.62
2021/05/05 04:38, 11.58
2021/05/05 04:58, 11.59
2021/05/05 05:18, 11.65
2021/05/05 05:38, 11.62
2021/05/05 05:58, 11.57
2021/05/05 06:18, 11.58
2021/05/05 06:38, 11.63
2021/05/05 06:58, 11.54
2021/05/05 07:18, 11.57
2021/05/05 07:38, 11.57
2021/05/05 07:58, 11.61
2021/05/05 08:18, 11.56
2021/05/05 08:38, 11.62
2021/05/05 08:58, 11.49
2021/05/05 09:18, 11.57
2021/05/05 09:38, 11.56
2021/05/05 09:58, 11.45
2021/05/05 10:18, 11.54
2021/05/05 10:38, 11.54
2021/05/05 10:58, 11.56
2021/05/05 11:18, 11.65
2021/05/05 11:38, 11.94
2021/05/05 11:58, 13.53
2021/05/05 12:18, 12.14
2021/05/05 12:38, 12.22
2021/05/05 12:58, 12.22
2021/05/05 13:18, 12.47
2021/05/05 13:38, 12.82
2021/05/05 13:58, 13.28
2021/05/05 14:18, 13.61
2021/05/05 14:38, 13.49
2021/05/05 14:58, 13.64
2021/05/05 15:18, 13.64
2021/05/05 15:38, 13.65
2021/05/05 15:58, 13.63
2021/05/05 16:18, 13.66
2021/05/05 16:38, 13.45
2021/05/05 16:58, 13.45
2021/05/05 17:18, 13.45
2021/05/05 17:38, 13.46
2021/05/05 17:58, 13.46
2021/05/05 18:18, 13.44
2021/05/05 18:38, 13.32
2021/05/05 18:58, 13.46
2021/05/05 19:18, 13.45
2021/05/05 19:38, 13.46
2021/05/05 19:58, 13.42
2021/05/05 20:18, 13.46
2021/05/05 20:38, 13.45
2021/05/05 20:58, 13.44
2021/05/05 21:18, 13.46
2021/05/05 21:38, 13.46
2021/05/05 21:58, 13.47
2021/05/05 22:18, 13.44
2021/05/05 22:38, 13.46
2021/05/05 22:58, 13.48
2021/05/05 23:18, 13.48
2021/05/05 23:38, 13.48
2021/05/05 23:58, 12.56
2021/05/06 00:18, 13.03
2021/05/06 00:38, 12.48
2021/05/06 00:58, 11.78
2021/05/06 01:18, 11.73
2021/05/06 01:38, 11.72
2021/05/06 01:58, 11.67
2021/05/06 02:18, 11.72
2021/05/06 02:38, 11.72
2021/05/06 02:58, 11.71
2021/05/06 03:18, 11.67
2021/05/06 03:38, 11.63
2021/05/06 03:58, 11.72
2021/05/06 04:18, 11.66
2021/05/06 04:38, 11.69
2021/05/06 04:58, 11.68
2021/05/06 05:18, 11.76
2021/05/06 05:38, 11.76
2021/05/06 05:58, 11.68
2021/05/06 06:18, 11.71
2021/05/06 06:38, 11.62
2021/05/06 06:58, 11.61
2021/05/06 07:18, 11.69
2021/05/06 07:38, 11.66
2021/05/06 07:58, 11.59
2021/05/06 08:18, 11.64
2021/05/06 08:38, 11.64
2021/05/06 08:58, 11.56
2021/05/06 09:18, 11.62
2021/05/06 09:38, 11.59
2021/05/06 09:58, 11.56
2021/05/06 10:18, 11.55
2021/05/06 10:38, 11.56
2021/05/06 10:58, 11.58
2021/05/06 11:18, 11.56
2021/05/06 11:38, 11.59
2021/05/06 11:58, 11.60
2021/05/06 12:18, 11.71
2021/05/06 12:38, 11.81
2021/05/06 12:58, 11.74
2021/05/06 13:18, 11.86
2021/05/06 13:38, 12.02
2021/05/06 13:58, 11.99
2021/05/06 14:18, 12.23
2021/05/06 14:38, 11.71
2021/05/06 14:58, 12.43
2021/05/06 15:18, 12.87
2021/05/06 15:38, 13.29
2021/05/06 15:58, 13.44
2021/05/06 16:18, 13.65
2021/05/06 16:38, 13.63
2021/05/06 16:58, 13.47
2021/05/06 17:18, 13.12
2021/05/06 17:38, 13.48
2021/05/06 17:58, 13.65
2021/05/06 18:18, 13.66
2021/05/06 18:38, 13.59
2021/05/06 18:58, 13.68
2021/05/06 19:18, 13.70
2021/05/06 19:38, 13.72
2021/05/06 19:58, 13.74
2021/05/06 20:18, 13.46
2021/05/06 20:38, 13.47
2021/05/06 20:58, 13.47
2021/05/06 21:18, 13.48
2021/05/06 21:38, 13.48
2021/05/06 21:58, 13.47
2021/05/06 22:18, 13.49
2021/05/06 22:38, 13.50
2021/05/06 22:58, 13.51
2021/05/06 23:18, 13.51
2021/05/06 23:38, 13.00
2021/05/06 23:58, 12.75
2021/05/07 00:18, 12.23
2021/05/07 00:38, 11.94
2021/05/07 00:58, 11.87
2021/05/07 01:18, 11.85
2021/05/07 01:38, 11.88
2021/05/07 01:58, 11.82
2021/05/07 02:18, 11.82
2021/05/07 02:38, 11.78
2021/05/07 02:58, 11.84
2021/05/07 03:18, 11.73
2021/05/07 03:38, 11.83
2021/05/07 03:58, 11.73
2021/05/07 04:18, 11.73
2021/05/07 04:38, 11.72
2021/05/07 04:58, 11.69
2021/05/07 05:18, 11.70
2021/05/07 05:38, 11.74
2021/05/07 05:58, 11.68
2021/05/07 06:18, 11.73
2021/05/07 06:38, 11.73
2021/05/07 06:58, 11.63
2021/05/07 07:18, 11.63
2021/05/07 07:38, 11.72
2021/05/07 07:58, 11.61
2021/05/07 08:18, 11.61
2021/05/07 08:38, 11.66
2021/05/07 08:58, 11.57
2021/05/07 09:18, 11.62
2021/05/07 09:38, 11.56
2021/05/07 09:58, 11.55
2021/05/07 10:18, 11.57
2021/05/07 10:38, 11.74
2021/05/07 10:58, 11.70
2021/05/07 11:18, 11.65
2021/05/07 11:38, 11.74
2021/05/07 11:58, 12.11
2021/05/07 12:18, 12.16
2021/05/07 12:38, 11.86
2021/05/07 12:58, 11.94
2021/05/07 13:18, 11.85
2021/05/07 13:38, 12.63
2021/05/07 13:58, 12.07
2021/05/07 14:18, 12.62
2021/05/07 14:38, 13.17
2021/05/07 14:58, 13.47
2021/05/07 15:18, 13.65
2021/05/07 15:38, 13.67
2021/05/07 15:58, 13.66
2021/05/07 16:18, 13.68
2021/05/07 16:38, 13.70
2021/05/07 16:58, 13.72
2021/05/07 17:18, 13.75
2021/05/07 17:38, 13.48
2021/05/07 17:58, 13.47
2021/05/07 18:18, 13.49
2021/05/07 18:38, 13.41
2021/05/07 18:58, 13.49
2021/05/07 19:18, 13.50
2021/05/07 19:38, 13.53
2021/05/07 19:58, 13.51
2021/05/07 20:18, 13.52
2021/05/07 20:38, 13.53
2021/05/07 20:58, 13.52
2021/05/07 21:18, 13.55
2021/05/07 21:38, 13.53
2021/05/07 21:58, 13.54
2021/05/07 22:18, 13.57
2021/05/07 22:38, 13.56
2021/05/07 22:58, 13.57
2021/05/07 23:18, 13.60
2021/05/07 23:38, 13.59
2021/05/07 23:58, 13.62
2021/05/08 00:18, 13.95
2021/05/08 00:38, 12.89
2021/05/08 00:58, 11.94
2021/05/08 01:18, 11.93
2021/05/08 01:38, 11.81
2021/05/08 01:58, 11.87
2021/05/08 02:18, 11.83
2021/05/08 02:38, 11.83
2021/05/08 02:58, 11.81
2021/05/08 03:18, 11.77
2021/05/08 03:38, 11.75
2021/05/08 03:58, 11.73
2021/05/08 04:18, 11.72
2021/05/08 04:38, 11.76
2021/05/08 04:58, 11.71
2021/05/08 05:18, 11.74
2021/05/08 05:38, 11.72
2021/05/08 05:58, 11.72
2021/05/08 06:18, 11.71
2021/05/08 06:38, 11.69
2021/05/08 06:58, 11.71
2021/05/08 07:18, 11.71
2021/05/08 07:38, 11.69
2021/05/08 07:58, 11.70
2021/05/08 08:18, 11.63
2021/05/08 08:38, 11.64
2021/05/08 08:58, 11.62
2021/05/08 09:18, 11.62
2021/05/08 09:38, 11.59
2021/05/08 09:58, 11.56
2021/05/08 10:18, 11.62
2021/05/08 10:38, 12.18
2021/05/08 10:58, 13.14
2021/05/08 11:18, 13.71
2021/05/08 11:38, 13.69
2021/05/08 11:58, 13.70
2021/05/08 12:18, 13.73
2021/05/08 12:38, 13.76
2021/05/08 12:58, 13.74
2021/05/08 13:18, 13.79
2021/05/08 13:38, 13.49
2021/05/08 13:58, 13.51
2021/05/08 14:18, 13.55
2021/05/08 14:38, 13.54
2021/05/08 14:58, 13.57
2021/05/08 15:18, 13.62
2021/05/08 15:38, 13.59
2021/05/08 15:58, 13.60
2021/05/08 16:18, 13.62
2021/05/08 16:38, 13.64
2021/05/08 16:58, 13.60
2021/05/08 17:18, 13.63
2021/05/08 17:38, 13.65
2021/05/08 17:58, 13.65
2021/05/08 18:18, 13.66
2021/05/08 18:38, 13.54
2021/05/08 18:58, 13.66
2021/05/08 19:18, 13.66
2021/05/08 19:38, 13.69
2021/05/08 19:58, 13.66
2021/05/08 20:18, 13.70
2021/05/08 20:38, 13.68
2021/05/08 20:58, 13.67
2021/05/08 21:18, 13.70
2021/05/08 21:38, 13.69
2021/05/08 21:58, 13.70
2021/05/08 22:18, 13.71
2021/05/08 22:38, 13.73
2021/05/08 22:58, 13.71
2021/05/08 23:18, 13.59
2021/05/08 23:38, 12.72
2021/05/08 23:58, 12.23
2021/05/09 00:18, 12.02
2021/05/09 00:38, 11.88
2021/05/09 00:58, 11.86
2021/05/09 01:18, 11.94
2021/05/09 01:38, 11.86
2021/05/09 01:58, 11.83
2021/05/09 02:18, 11.91
2021/05/09 02:38, 11.92
2021/05/09 02:58, 11.77
2021/05/09 03:18, 11.81
2021/05/09 03:38, 11.81
2021/05/09 03:58, 11.78
2021/05/09 04:18, 11.78
2021/05/09 04:38, 11.78
2021/05/09 04:58, 11.75
2021/05/09 05:18, 11.83
2021/05/09 05:38, 11.81
2021/05/09 05:58, 11.72
2021/05/09 06:18, 11.73
2021/05/09 06:38, 11.71
2021/05/09 06:58, 11.68
2021/05/09 07:18, 11.71
2021/05/09 07:38, 11.69
2021/05/09 07:58, 11.71
2021/05/09 08:18, 11.67
2021/05/09 08:38, 11.66
2021/05/09 08:58, 11.65
2021/05/09 09:18, 11.63
2021/05/09 09:38, 11.64
2021/05/09 09:58, 11.68
2021/05/09 10:18, 11.60
2021/05/09 10:38, 11.70
2021/05/09 10:58, 11.71
2021/05/09 11:18, 11.85
2021/05/09 11:38, 12.06
2021/05/09 11:58, 12.35
2021/05/09 12:18, 12.71
2021/05/09 12:38, 12.87
2021/05/09 12:58, 13.08
2021/05/09 13:18, 13.10
2021/05/09 13:38, 13.43
2021/05/09 13:58, 13.46
2021/05/09 14:18, 13.67
2021/05/09 14:38, 13.52
2021/05/09 14:58, 13.70
2021/05/09 15:18, 13.71
2021/05/09 15:38, 13.72
2021/05/09 15:58, 13.73
2021/05/09 16:18, 13.75
2021/05/09 16:38, 13.79
2021/05/09 16:58, 13.81
2021/05/09 17:18, 13.51
2021/05/09 17:38, 13.53
2021/05/09 17:58, 13.50
2021/05/09 18:18, 13.55
2021/05/09 18:38, 13.46
2021/05/09 18:58, 13.55
2021/05/09 19:18, 13.55
2021/05/09 19:38, 13.54
2021/05/09 19:58, 13.52
2021/05/09 20:18, 13.55
2021/05/09 20:38, 13.57
2021/05/09 20:58, 13.54
2021/05/09 21:18, 13.55
2021/05/09 21:38, 13.58
2021/05/09 21:58, 13.61
2021/05/09 22:18, 13.58
2021/05/09 22:38, 13.60
2021/05/09 22:58, 13.60
2021/05/09 23:18, 13.60
2021/05/09 23:38, 13.65
2021/05/09 23:58, 13.61
2021/05/10 00:18, 13.65
2021/05/10 00:38, 13.03
2021/05/10 00:58, 11.94
2021/05/10 01:18, 11.90
2021/05/10 01:38, 11.85
2021/05/10 01:58, 11.85
2021/05/10 02:18, 11.85
2021/05/10 02:38, 11.91
2021/05/10 02:58, 11.83
2021/05/10 03:18, 11.82
2021/05/10 03:38, 11.83
2021/05/10 03:58, 11.76
2021/05/10 04:18, 11.80
2021/05/10 04:38, 11.76
2021/05/10 04:58, 11.76
2021/05/10 05:18, 11.80
2021/05/10 05:38, 11.73
2021/05/10 05:58, 11.82
2021/05/10 06:18, 11.82
2021/05/10 06:38, 11.74
2021/05/10 06:58, 11.74
2021/05/10 07:18, 11.72
2021/05/10 07:38, 11.72
2021/05/10 07:58, 11.72
2021/05/10 08:18, 11.69
2021/05/10 08:38, 11.72
2021/05/10 08:58, 11.71
2021/05/10 09:18, 11.69
2021/05/10 09:38, 11.70
2021/05/10 09:58, 11.59
2021/05/10 10:18, 11.61
2021/05/10 10:38, 11.61
2021/05/10 10:58, 11.59
2021/05/10 11:18, 11.70
2021/05/10 11:38, 11.84
2021/05/10 11:58, 12.03
2021/05/10 12:18, 13.10
2021/05/10 12:38, 13.24
2021/05/10 12:58, 12.65
2021/05/10 13:18, 12.22
2021/05/10 13:38, 12.27
2021/05/10 13:58, 12.43
2021/05/10 14:18, 12.48
2021/05/10 14:38, 12.14
2021/05/10 14:58, 12.51
2021/05/10 15:18, 13.37
2021/05/10 15:38, 13.70
2021/05/10 15:58, 13.69
2021/05/10 16:18, 13.69
2021/05/10 16:38, 13.73
2021/05/10 16:58, 13.76
2021/05/10 17:18, 13.76
2021/05/10 17:38, 13.77
2021/05/10 17:58, 13.50
2021/05/10 18:18, 13.52
2021/05/10 18:38, 13.45
2021/05/10 18:58, 13.52
2021/05/10 19:18, 13.54
2021/05/10 19:38, 13.56
2021/05/10 19:58, 13.59
2021/05/10 20:18, 13.60
2021/05/10 20:38, 13.64
2021/05/10 20:58, 13.65
2021/05/10 21:18, 13.62
2021/05/10 21:38, 13.64
2021/05/10 21:58, 13.65
2021/05/10 22:18, 13.64
2021/05/10 22:38, 13.66
2021/05/10 22:58, 13.66
2021/05/10 23:18, 13.67
2021/05/10 23:38, 13.66
2021/05/10 23:58, 13.68
2021/05/11 00:18, 13.69
2021/05/11 00:38, 13.68
2021/05/11 00:58, 11.99
2021/05/11 01:18, 11.89
2021/05/11 01:38, 11.92
2021/05/11 01:58, 11.92
2021/05/11 02:18, 11.80
2021/05/11 02:38, 11.77
2021/05/11 02:58, 11.73
2021/05/11 03:18, 11.74
2021/05/11 03:38, 11.75
2021/05/11 03:58, 11.74
2021/05/11 04:18, 11.71
2021/05/11 04:38, 11.76
2021/05/11 04:58, 11.71
2021/05/11 05:18, 11.71
2021/05/11 05:38, 11.70
2021/05/11 05:58, 11.62
2021/05/11 06:18, 11.67
2021/05/11 06:38, 11.71
2021/05/11 06:58, 11.68
2021/05/11 07:18, 11.64
2021/05/11 07:38, 11.62
2021/05/11 07:58, 11.57
2021/05/11 08:18, 11.62
2021/05/11 08:38, 11.55
2021/05/11 08:58, 11.51
2021/05/11 09:18, 11.52
2021/05/11 09:38, 11.46
2021/05/11 09:58, 11.42
2021/05/11 10:18, 11.43
2021/05/11 10:38, 12.23
2021/05/11 10:58, 13.54
2021/05/11 11:18, 12.90
2021/05/11 11:38, 12.91
2021/05/11 11:58, 13.67
2021/05/11 12:18, 13.70
2021/05/11 12:38, 13.70
2021/05/11 12:58, 13.74
2021/05/11 13:18, 13.76
2021/05/11 13:38, 13.77
2021/05/11 13:58, 13.78
2021/05/11 14:18, 13.50
2021/05/11 14:38, 13.43
2021/05/11 14:58, 13.52
2021/05/11 15:18, 13.53
2021/05/11 15:38, 13.58
2021/05/11 15:58, 13.57
2021/05/11 16:18, 13.61
2021/05/11 16:38, 13.62
2021/05/11 16:58, 13.65
2021/05/11 17:18, 13.65
2021/05/11 17:38, 13.62
2021/05/11 17:58, 13.64
2021/05/11 18:18, 13.65
2021/05/11 18:38, 13.51
2021/05/11 18:58, 13.65
2021/05/11 19:18, 13.63
2021/05/11 19:38, 13.62
2021/05/11 19:58, 13.64
2021/05/11 20:18, 13.66
2021/05/11 20:38, 13.64
2021/05/11 20:58, 13.63
2021/05/11 21:18, 13.64
2021/05/11 21:38, 13.63
2021/05/11 21:58, 13.61
2021/05/11 22:18, 13.63
2021/05/11 22:38, 13.60
2021/05/11 22:58, 13.56
2021/05/11 23:18, 13.63
2021/05/11 23:38, 13.64
2021/05/11 23:58, 13.60
2021/05/12 00:18, 13.63
2021/05/12 00:38, 13.65
2021/05/12 00:58, 11.95
2021/05/12 01:18, 11.76
2021/05/12 01:38, 11.76
2021/05/12 01:58, 11.72
2021/05/12 02:18, 11.74
2021/05/12 02:38, 11.80
2021/05/12 02:58, 11.74
2021/05/12 03:18, 11.79
2021/05/12 03:38, 11.81
2021/05/12 03:58, 11.74
2021/05/12 04:18, 11.68
2021/05/12 04:38, 11.73
2021/05/12 04:58, 11.71
2021/05/12 05:18, 11.74
2021/05/12 05:38, 11.68
2021/05/12 05:58, 11.62
2021/05/12 06:18, 11.65
2021/05/12 06:38, 11.68
2021/05/12 06:58, 11.64
2021/05/12 07:18, 11.63
2021/05/12 07:38, 11.65
2021/05/12 07:58, 11.58
2021/05/12 08:18, 11.60
2021/05/12 08:38, 11.72
2021/05/12 08:58, 11.65
2021/05/12 09:18, 11.65
2021/05/12 09:38, 11.62
2021/05/12 09:58, 11.61
2021/05/12 10:18, 11.59
2021/05/12 10:38, 12.48
2021/05/12 10:58, 13.71
2021/05/12 11:18, 13.74
2021/05/12 11:38, 13.74
2021/05/12 11:58, 13.76
2021/05/12 12:18, 13.78
2021/05/12 12:38, 13.77
2021/05/12 12:58, 13.79
2021/05/12 13:18, 13.80
2021/05/12 13:38, 13.52
2021/05/12 13:58, 13.52
2021/05/12 14:18, 13.56
2021/05/12 14:38, 13.46
2021/05/12 14:58, 13.57
2021/05/12 15:18, 13.59
2021/05/12 15:38, 13.63
2021/05/12 15:58, 13.61
2021/05/12 16:18, 13.66
2021/05/12 16:38, 13.66
2021/05/12 16:58, 13.65
2021/05/12 17:18, 13.65
2021/05/12 17:38, 13.68
2021/05/12 17:58, 13.66
2021/05/12 18:18, 13.66
2021/05/12 18:38, 13.51
2021/05/12 18:58, 13.62
2021/05/12 19:18, 13.63
2021/05/12 19:38, 13.59
2021/05/12 19:58, 13.57
2021/05/12 20:18, 13.68
2021/05/12 20:38, 13.69
2021/05/12 20:58, 13.67
2021/05/12 21:18, 13.73
2021/05/12 21:38, 13.69
2021/05/12 21:58, 13.65
2021/05/12 22:18, 13.66
2021/05/12 22:38, 13.66
2021/05/12 22:58, 13.67
2021/05/12 23:18, 13.69
2021/05/12 23:38, 13.69
2021/05/12 23:58, 13.67
2021/05/13 00:18, 13.68
2021/05/13 00:38, 13.70
2021/05/13 00:58, 12.13
2021/05/13 01:18, 11.91
2021/05/13 01:38, 11.81
2021/05/13 01:58, 11.78
2021/05/13 02:18, 11.90
2021/05/13 02:38, 11.80
2021/05/13 02:58, 11.62
2021/05/13 03:18, 11.72
2021/05/13 03:38, 11.88
2021/05/13 03:58, 11.76
2021/05/13 04:18, 11.81
2021/05/13 04:38, 11.79
2021/05/13 04:58, 11.76
2021/05/13 05:18, 11.84
2021/05/13 05:38, 11.74
2021/05/13 05:58, 11.71
2021/05/13 06:18, 11.71
2021/05/13 06:38, 11.68
2021/05/13 06:58, 11.77
2021/05/13 07:18, 11.56
2021/05/13 07:38, 11.56
2021/05/13 07:58, 11.57
2021/05/13 08:18, 11.66
2021/05/13 08:38, 11.68
2021/05/13 08:58, 11.68
2021/05/13 09:18, 11.44
2021/05/13 09:38, 11.43
2021/05/13 09:58, 11.39
2021/05/13 10:18, 11.42
2021/05/13 10:38, 12.56
2021/05/13 10:58, 13.57
2021/05/13 11:18, 13.63
2021/05/13 11:38, 13.63
2021/05/13 11:58, 13.62
2021/05/13 12:18, 13.65
2021/05/13 12:38, 13.67
2021/05/13 12:58, 13.67
2021/05/13 13:18, 13.45
2021/05/13 13:38, 13.46
2021/05/13 13:58, 13.45
2021/05/13 14:18, 13.45
2021/05/13 14:38, 13.28
2021/05/13 14:58, 13.41
2021/05/13 15:18, 13.45
2021/05/13 15:38, 13.43
2021/05/13 15:58, 13.46
2021/05/13 16:18, 13.50
2021/05/13 16:38, 13.52
2021/05/13 16:58, 13.51
2021/05/13 17:18, 13.52
2021/05/13 17:38, 13.53
2021/05/13 17:58, 13.56
2021/05/13 18:18, 13.58
2021/05/13 18:38, 13.39
2021/05/13 18:58, 13.57
2021/05/13 19:18, 13.54
2021/05/13 19:38, 13.52
2021/05/13 19:58, 13.56
2021/05/13 20:18, 13.54
2021/05/13 20:38, 13.55
2021/05/13 20:58, 13.56
2021/05/13 21:18, 13.57
2021/05/13 21:38, 13.61
2021/05/13 21:58, 13.61
2021/05/13 22:18, 13.61
2021/05/13 22:38, 13.62
2021/05/13 22:58, 13.60
2021/05/13 23:18, 13.61
2021/05/13 23:38, 13.64
2021/05/13 23:58, 13.65
2021/05/14 00:18, 13.65
2021/05/14 00:38, 13.65
2021/05/14 00:58, 11.94
2021/05/14 01:18, 11.86
2021/05/14 01:38, 11.82
2021/05/14 01:58, 11.62
2021/05/14 02:18, 11.68
2021/05/14 02:38, 11.63
2021/05/14 02:58, 11.58
2021/05/14 03:18, 11.59
2021/05/14 03:38, 11.61
2021/05/14 03:58, 11.58
2021/05/14 04:18, 11.68
2021/05/14 04:38, 11.57
2021/05/14 04:58, 11.58
2021/05/14 05:18, 11.58
2021/05/14 05:38, 11.64
2021/05/14 05:58, 11.56
2021/05/14 06:18, 11.57
2021/05/14 06:38, 11.65
2021/05/14 06:58, 11.73
2021/05/14 07:18, 11.68
2021/05/14 07:38, 11.64
2021/05/14 07:58, 11.59
2021/05/14 08:18, 11.63
2021/05/14 08:38, 11.63
2021/05/14 08:58, 11.63
2021/05/14 09:18, 11.57
2021/05/14 09:38, 11.62
2021/05/14 09:58, 11.61
2021/05/14 10:18, 11.63
2021/05/14 10:38, 12.13
2021/05/14 10:58, 13.53
2021/05/14 11:18, 13.65
2021/05/14 11:38, 13.65
2021/05/14 11:58, 13.65
2021/05/14 12:18, 13.65
2021/05/14 12:38, 13.66
2021/05/14 12:58, 13.66
2021/05/14 13:18, 13.72
2021/05/14 13:38, 13.42
2021/05/14 13:58, 13.43
2021/05/14 14:18, 13.44
2021/05/14 14:38, 13.26
2021/05/14 14:58, 13.37
2021/05/14 15:18, 13.45
2021/05/14 15:38, 13.46
2021/05/14 15:58, 13.42
2021/05/14 16:18, 13.45
2021/05/14 16:38, 13.46
2021/05/14 16:58, 13.50
2021/05/14 17:18, 13.49
2021/05/14 17:38, 13.50
2021/05/14 17:58, 13.50
2021/05/14 18:18, 13.49
2021/05/14 18:38, 13.44
2021/05/14 18:58, 13.54
2021/05/14 19:18, 13.55
2021/05/14 19:38, 13.58
2021/05/14 19:58, 13.61
2021/05/14 20:18, 13.57
2021/05/14 20:38, 13.60
2021/05/14 20:58, 13.61
2021/05/14 21:18, 13.58
2021/05/14 21:38, 13.55
2021/05/14 21:58, 13.55
2021/05/14 22:18, 13.60
2021/05/14 22:38, 13.58
2021/05/14 22:58, 13.61
2021/05/14 23:18, 13.59
2021/05/14 23:38, 13.63
2021/05/14 23:58, 13.60
2021/05/15 00:18, 13.60
2021/05/15 00:38, 12.13
2021/05/15 00:58, 11.83
2021/05/15 01:18, 11.81
2021/05/15 01:38, 11.78
2021/05/15 01:58, 11.74
2021/05/15 02:18, 11.74
2021/05/15 02:38, 11.78
2021/05/15 02:58, 11.76
2021/05/15 03:18, 11.62
2021/05/15 03:38, 11.62
2021/05/15 03:58, 11.57
2021/05/15 04:18, 11.58
2021/05/15 04:38, 11.68
2021/05/15 04:58, 11.58
2021/05/15 05:18, 11.56
2021/05/15 05:38, 11.72
2021/05/15 05:58, 11.72
2021/05/15 06:18, 11.69
2021/05/15 06:38, 11.69
2021/05/15 06:58, 11.70
2021/05/15 07:18, 11.72
2021/05/15 07:38, 11.68
2021/05/15 07:58, 11.61
2021/05/15 08:18, 11.47
2021/05/15 08:38, 11.55
2021/05/15 08:58, 11.52
2021/05/15 09:18, 11.45
2021/05/15 09:38, 11.43
2021/05/15 09:58, 11.41
2021/05/15 10:18, 11.41
2021/05/15 10:38, 11.44
2021/05/15 10:58, 11.44
2021/05/15 11:18, 11.52
2021/05/15 11:38, 11.56
2021/05/15 11:58, 11.81
2021/05/15 12:18, 11.91
2021/05/15 12:38, 12.01
2021/05/15 12:58, 12.34
2021/05/15 13:18, 12.54
2021/05/15 13:38, 13.49
2021/05/15 13:58, 13.56
2021/05/15 14:18, 13.58
2021/05/15 14:38, 13.38
2021/05/15 14:58, 13.52
2021/05/15 15:18, 13.53
2021/05/15 15:38, 13.52
2021/05/15 15:58, 13.51
2021/05/15 16:18, 13.25
2021/05/15 16:38, 13.28
2021/05/15 16:58, 13.26
2021/05/15 17:18, 13.31
2021/05/15 17:38, 13.29
2021/05/15 17:58, 13.28
2021/05/15 18:18, 13.32
2021/05/15 18:38, 13.18
2021/05/15 18:58, 13.36
2021/05/15 19:18, 13.34
2021/05/15 19:38, 13.33
2021/05/15 19:58, 13.36
2021/05/15 20:18, 13.37
2021/05/15 20:38, 12.83
2021/05/15 20:58, 12.98
2021/05/15 21:18, 13.16
2021/05/15 21:38, 12.42
2021/05/15 21:58, 12.15
2021/05/15 22:18, 12.01
2021/05/15 22:38, 11.99
2021/05/15 22:58, 12.08
2021/05/15 23:18, 11.93
2021/05/15 23:38, 11.77
2021/05/15 23:58, 11.79
2021/05/16 00:18, 11.81
2021/05/16 00:38, 11.73
2021/05/16 00:58, 11.71
2021/05/16 01:18, 11.57
2021/05/16 01:38, 11.58
2021/05/16 01:58, 11.54
2021/05/16 02:18, 11.56
2021/05/16 02:38, 11.57
2021/05/16 02:58, 11.56
2021/05/16 03:18, 11.56
2021/05/16 03:38, 11.51
2021/05/16 03:58, 11.46
2021/05/16 04:18, 11.49
2021/05/16 04:38, 11.45
2021/05/16 04:58, 11.43
2021/05/16 05:18, 11.55
2021/05/16 05:38, 11.54
2021/05/16 05:58, 11.46
2021/05/16 06:18, 11.43
2021/05/16 06:38, 11.42
2021/05/16 06:58, 11.37
2021/05/16 07:18, 11.44
2021/05/16 07:38, 11.38
2021/05/16 07:58, 11.36
2021/05/16 08:18, 11.37
2021/05/16 08:38, 11.36
2021/05/16 08:58, 11.36
2021/05/16 09:18, 11.37
2021/05/16 09:38, 11.43
2021/05/16 09:58, 11.44
2021/05/16 10:18, 11.47
2021/05/16 10:38, 11.46
2021/05/16 10:58, 11.46
2021/05/16 11:18, 11.63
2021/05/16 11:38, 11.63
2021/05/16 11:58, 11.62
2021/05/16 12:18, 11.77
2021/05/16 12:38, 11.64
2021/05/16 12:58, 11.63
2021/05/16 13:18, 11.82
2021/05/16 13:38, 12.62
2021/05/16 13:58, 12.37
2021/05/16 14:18, 12.32
2021/05/16 14:38, 12.59
2021/05/16 14:58, 13.46
2021/05/16 15:18, 13.46